Torna al catalogo

THORAD DELTA 1 DEB

AttivoSSO
NORAD 8401·DEBRIS·🇺🇸 United States

Lanciato Nov 15, 1974 da Vandenberg Space Force Base

Loading…

Prossimi Passaggi (prossime 24 ore)

TLE

AggiornatoSource: Space-Track

Epoca: Sep 14, 2026, 10:31 UTC

1 08401U 74089CD  26257.43850760 -.00000066  00000-0 -10814-3 0  9997
2 08401 101.4055 332.1784 0067636 237.9181 186.2027 12.67233900396599

Traccia THORAD DELTA 1 DEB in tempo reale con AllMySat

Download on the App Store